FW1417 Weather Reports


Display with metric or nautical units.
time (UTC)temp
F
wind
direction
speed
MPH
gust
MPH
rain 1hr
in
rain 24hr
in
rain mn
in
humidity
%
barometer
mb
20260906124227 71 332 5.0 8.0 0.00 0.00 0.00 69 1014.3
20260906123727 71 55 2.0 5.0 0.00 0.00 0.00 70 1014.2
20260906122727 70 17 3.0 7.0 0.00 0.00 0.00 72 1014.1
20260906121726 69 32 3.0 8.0 0.00 0.00 0.00 75 1014.1
20260906121205 69 349 4.0 8.0 0.00 0.00 0.00 76 1014.1
20260906120726 68 335 3.0 8.0 0.00 0.00 0.00 78 1014.0
20260906115726 68 340 2.0 3.0 0.00 0.00 0.00 79 1014.0
20260906115227 68 341 2.0 5.0 0.00 0.00 0.00 79 1013.9
20260906114726 68 314 2.0 5.0 0.00 0.00 0.00 79 1013.8
20260906114226 68 12 3.0 5.0 0.00 0.00 0.00 79 1013.8
20260906113726 68 322 2.0 3.0 0.00 0.00 0.00 79 1013.7
20260906112726 67 317 2.0 5.0 0.00 0.00 0.00 79 1013.5
20260906112226 67 313 2.0 5.0 0.00 0.00 0.00 80 1013.5
20260906111727 67 346 2.0 3.0 0.00 0.00 0.00 82 1013.4
20260906111226 67 339 1.0 3.0 0.00 0.00 0.00 83 1013.2
20260906110226 67 339 1.0 3.0 0.00 0.00 0.00 84 1013.2
20260906105727 67 346 1.0 3.0 0.00 0.00 0.00 84 1013.2
20260906105227 67 327 2.0 3.0 0.00 0.00 0.00 84 1013.1
20260906104726 67 324 1.0 5.0 0.00 0.00 0.00 84 1013.0
20260906104226 67 315 2.0 5.0 0.00 0.00 0.00 84 1013.0
20260906103226 67 17 2.0 5.0 0.00 0.00 0.00 84 1012.9
20260906102726 67 292 2.0 5.0 0.00 0.00 0.00 84 1012.8
20260906101727 67 350 2.0 5.0 0.00 0.00 0.00 84 1012.8
20260906101226 67 338 2.0 5.0 0.00 0.00 0.00 84 1012.7
20260906100726 67 0 2.0 7.0 0.00 0.00 0.00 85 1012.5
20260906100226 67 355 2.0 7.0 0.00 0.00 0.00 85 1012.6
20260906095726 67 315 2.0 7.0 0.00 0.00 0.00 85 1012.5
20260906095226 67 0 2.0 7.0 0.00 0.00 0.00 85 1012.5
20260906094726 67 300 3.0 7.0 0.00 0.00 0.00 84 1012.5
20260906094226 67 327 3.0 7.0 0.00 0.00 0.00 84 1012.5
20260906093726 67 344 3.0 8.0 0.00 0.00 0.00 84 1012.4
20260906093226 67 306 3.0 8.0 0.00 0.00 0.00 83 1012.3
20260906092726 68 309 3.0 8.0 0.00 0.00 0.00 83 1012.2
20260906092226 68 312 3.0 7.0 0.00 0.00 0.00 83 1012.1
20260906091726 68 286 1.0 3.0 0.00 0.00 0.00 83 1011.9
20260906091226 68 336 2.0 5.0 0.00 0.00 0.00 83 1011.8
20260906090226 68 348 2.0 5.0 0.00 0.00 0.00 83 1011.8
20260906085726 68 304 1.0 5.0 0.00 0.00 0.00 83 1011.8
20260906085226 68 339 2.0 5.0 0.00 0.00 0.00 82 1011.7
20260906084226 68 13 3.0 5.0 0.00 0.00 0.00 81 1011.8
20260906083226 69 5 2.0 8.0 0.00 0.00 0.00 81 1011.7
20260906082726 69 290 2.0 5.0 0.00 0.00 0.00 81 1011.7
20260906082226 69 291 2.0 5.0 0.00 0.00 0.00 81 1011.7
20260906081226 69 13 3.0 10.0 0.00 0.00 0.00 81 1011.6
20260906080726 69 11 4.0 10.0 0.00 0.00 0.00 81 1011.5
20260906080225 69 36 4.0 10.0 0.00 0.00 0.00 81 1011.6
20260906075725 69 41 5.0 8.0 0.00 0.00 0.00 81 1011.5
20260906075226 69 54 3.0 7.0 0.00 0.00 0.00 80 1011.5
20260906074725 69 0 3.0 10.0 0.00 0.00 0.00 80 1011.5
20260906074225 69 5 5.0 12.0 0.00 0.00 0.00 80 1011.6
20260906072727 68 19 3.0 6.0 0.00 0.00 0.00 80 1011.4
20260906072225 68 30 2.0 7.0 0.00 0.00 0.00 79 1011.5
20260906071726 68 299 3.0 7.0 0.00 0.00 0.00 79 1011.6
20260906071226 68 304 3.0 7.0 0.00 0.00 0.00 78 1011.5
20260906070726 68 303 3.0 7.0 0.00 0.00 0.00 78 1011.4
20260906070227 69 312 2.0 5.0 0.00 0.00 0.00 78 1011.3
20260906065726 69 308 1.0 3.0 0.00 0.00 0.00 77 1011.3
20260906065226 69 313 2.0 6.0 0.00 0.00 0.00 77 1011.3
20260906064726 69 336 1.0 6.0 0.00 0.00 0.00 76 1011.2
20260906064226 69 318 2.0 6.0 0.00 0.00 0.00 76 1011.3
20260906063726 69 344 2.0 6.0 0.00 0.00 0.00 76 1011.3
20260906062726 69 350 3.0 6.0 0.00 0.00 0.00 75 1011.4
20260906062225 70 342 2.0 8.0 0.00 0.00 0.00 74 1011.4
20260906061726 70 355 3.0 8.0 0.00 0.00 0.00 74 1011.5
20260906061225 70 308 3.0 8.0 0.00 0.00 0.00 73 1011.6
20260906060726 70 324 3.0 7.0 0.00 0.00 0.00 72 1011.7
20260906060225 70 0 2.0 9.0 0.00 0.00 0.00 72 1011.9
20260906055725 70 337 5.0 9.0 0.00 0.00 0.00 71 1011.9
20260906054725 71 332 2.0 9.0 0.00 0.00 0.00 70 1011.7
20260906054225 71 0 2.0 9.0 0.00 0.00 0.00 70 1011.8
20260906053725 71 311 2.0 6.0 0.00 0.00 0.00 70 1011.8
20260906053226 71 15 1.0 8.0 0.00 0.00 0.00 70 1011.8
20260906052725 71 308 2.0 8.0 0.00 0.00 0.00 69 1011.7
20260906052225 71 325 2.0 8.0 0.00 0.00 0.00 69 1011.8
20260906051726 71 19 2.0 7.0 0.00 0.00 0.00 69 1011.8
20260906050726 71 17 3.0 7.0 0.00 0.00 0.00 69 1011.8
20260906050226 71 344 2.0 5.0 0.00 0.00 0.00 69 1011.8
20260906045727 72 19 2.0 7.0 0.00 0.00 0.00 68 1011.8
20260906045226 72 355 4.0 7.0 0.00 0.00 0.00 68 1011.9
20260906044725 72 338 2.0 8.0 0.00 0.00 0.00 68 1011.9
20260906044226 72 12 2.0 8.0 0.00 0.00 0.00 68 1011.9
20260906043726 72 348 2.0 6.0 0.00 0.00 0.00 68 1011.8
20260906043225 72 355 3.0 8.0 0.00 0.00 0.00 68 1011.8
20260906042728 72 345 4.0 8.0 0.00 0.00 0.00 68 1011.6
20260906041229 72 0 1.0 5.0 0.00 0.00 0.00 68 1011.7
20260906040228 72 333 2.0 7.0 0.00 0.00 0.00 67 1011.9
20260906035728 72 29 3.0 7.0 0.00 0.00 0.00 67 1011.8
20260906034729 72 0 2.0 8.0 0.00 0.00 0.00 67 1011.8
20260906034228 72 17 3.0 8.0 0.00 0.00 0.00 67 1011.8
20260906033728 72 63 3.0 7.0 0.00 0.00 0.00 67 1011.8
20260906032728 72 342 3.0 7.0 0.00 0.00 0.00 66 1011.6
20260906031228 73 336 3.0 8.0 0.00 0.00 0.00 66 1011.5
20260906030728 73 335 3.0 8.0 0.00 0.00 0.00 65 1011.5
20260906030228 73 342 2.0 7.0 0.00 0.00 0.00 65 1011.4
20260906025342 73 309 3.0 7.0 0.00 0.00 0.00 65 1011.4
20260906023727 73 12 4.0 10.0 0.00 0.00 0.00 64 1011.5
20260906023228 73 13 2.0 9.0 0.00 0.00 0.00 64 1011.4
20260906022727 73 347 4.0 9.0 0.00 0.00 0.00 64 1011.3
20260906022229 73 56 3.0 10.0 0.00 0.00 0.00 64 1011.4
20260906021728 73 327 5.0 10.0 0.00 0.00 0.00 63 1011.5
20260906021228 73 307 3.0 8.0 0.00 0.00 0.00 63 1011.4
20260906020728 74 276 3.0 8.0 0.00 0.00 0.00 63 1011.5
20260906020228 74 9 3.0 8.0 0.00 0.00 0.00 63 1011.4
20260906015728 74 330 2.0 7.0 0.00 0.00 0.00 63 1011.2
20260906015228 74 290 2.0 8.0 0.00 0.00 0.00 62 1011.2
20260906014727 74 11 2.0 9.0 0.00 0.00 0.00 62 1011.2
20260906014228 74 24 4.0 9.0 0.00 0.00 0.00 62 1011.1
20260906013227 75 44 2.0 9.0 0.00 0.00 0.00 62 1011.0
20260906012228 75 5 3.0 9.0 0.00 0.00 0.00 61 1011.0
20260906011727 75 348 4.0 9.0 0.00 0.00 0.00 61 1010.9
20260906011227 75 28 3.0 9.0 0.00 0.00 0.00 60 1010.9
20260906010728 75 344 5.0 9.0 0.00 0.00 0.00 60 1010.8
20260906010228 75 323 3.0 10.0 0.00 0.00 0.00 60 1010.8
20260906005228 75 31 2.0 10.0 0.00 0.00 0.00 60 1010.7
20260906004728 75 5 5.0 10.0 0.00 0.00 0.00 60 1010.7
20260906004228 75 323 3.0 10.0 0.00 0.00 0.00 59 1010.7
20260906003227 76 324 6.0 10.0 0.00 0.00 0.00 58 1010.5
20260906002227 76 336 6.0 12.0 0.00 0.00 0.00 58 1010.4
20260906000727 76 5 3.0 8.0 0.00 0.00 0.00 57 1010.2
20260906000227 76 310 3.0 9.0 0.00 0.00 0.00 57 1010.1
20260905235227 77 5 3.0 9.0 0.00 0.00 0.00 56 1010.0
20260905234727 77 309 5.0 8.0 0.00 0.00 0.00 56 1009.9
20260905234227 77 17 2.0 5.0 0.00 0.00 0.00 56 1009.8
20260905233727 77 340 2.0 3.0 0.00 0.00 0.00 56 1009.8
20260905233227 77 325 2.0 3.0 0.00 0.00 0.00 56 1009.9
20260905232727 77 355 2.0 6.0 0.00 0.00 0.00 56 1009.9
20260905232227 77 336 2.0 7.0 0.00 0.00 0.00 56 1009.9
20260905231728 77 337 3.0 10.0 0.00 0.00 0.00 55 1009.9
20260905230727 78 297 3.0 9.0 0.00 0.00 0.00 54 1010.0
20260905230227 78 9 3.0 9.0 0.00 0.00 0.00 53 1010.0
20260905225727 78 313 4.0 8.0 0.00 0.00 0.00 52 1009.9
20260905225227 78 306 1.0 9.0 0.00 0.00 0.00 52 1009.9
20260905224727 78 341 2.0 9.0 0.00 0.00 0.00 51 1009.7
20260905224227 78 315 3.0 9.0 0.00 0.00 0.00 51 1009.7
20260905223727 79 58 3.0 12.0 0.00 0.00 0.00 51 1009.5
20260905223227 79 355 5.0 12.0 0.00 0.00 0.00 51 1009.6
20260905222727 79 0 2.0 12.0 0.00 0.00 0.00 51 1009.7
20260905222227 79 17 7.0 12.0 0.00 0.00 0.00 50 1009.6
20260905221729 79 355 3.0 7.0 0.00 0.00 0.00 50 1009.5
20260905220727 79 319 5.0 12.0 0.00 0.00 0.00 49 1009.4
20260905220227 80 49 5.0 12.0 0.00 0.00 0.00 48 1009.4
20260905215728 80 327 5.0 10.0 0.00 0.00 0.00 48 1009.3
20260905214727 80 327 2.0 10.0 0.00 0.00 0.00 49 1009.3
20260905213728 80 29 2.0 12.0 0.00 0.00 0.00 49 1009.4
20260905213228 80 335 5.0 12.0 0.00 0.00 0.00 49 1009.5
20260905212727 80 228 5.0 10.0 0.00 0.00 0.00 48 1009.5
20260905212227 80 313 5.0 10.0 0.00 0.00 0.00 48 1009.3
20260905211729 80 59 4.0 10.0 0.00 0.00 0.00 48 1009.3
20260905211227 81 339 6.0 10.0 0.00 0.00 0.00 47 1009.3
20260905210729 81 0 3.0 9.0 0.00 0.00 0.00 48 1009.3
20260905210228 81 296 3.0 8.0 0.00 0.00 0.00 47 1009.3
20260905205727 81 256 2.0 8.0 0.00 0.00 0.00 48 1009.3
20260905205227 81 290 2.0 8.0 0.00 0.00 0.00 48 1009.3
20260905204727 81 20 3.0 8.0 0.00 0.00 0.00 47 1009.2
20260905204227 80 248 3.0 9.0 0.00 0.00 0.00 47 1009.2
20260905203728 81 355 5.0 9.0 0.00 0.00 0.00 47 1009.2
20260905203227 81 317 3.0 9.0 0.00 0.00 0.00 46 1009.2
20260905202727 80 300 4.0 9.0 0.00 0.00 0.00 49 1009.2
20260905202227 80 0 3.0 9.0 0.00 0.00 0.00 50 1009.1
20260905201727 79 18 2.0 8.0 0.00 0.00 0.00 49 1009.1
20260905201227 79 26 5.0 8.0 0.00 0.00 0.00 49 1009.1
20260905200227 80 336 2.0 7.0 0.00 0.00 0.00 51 1009.1
20260905195727 80 18 3.0 8.0 0.00 0.00 0.00 50 1009.2
20260905195227 80 12 3.0 9.0 0.00 0.00 0.00 50 1009.2
20260905194727 80 60 2.0 9.0 0.00 0.00 0.00 49 1009.2
20260905194227 80 51 3.0 9.0 0.00 0.00 0.00 49 1009.2
20260905193727 80 11 3.0 7.0 0.00 0.00 0.00 50 1009.2
20260905193227 79 9 4.0 8.0 0.00 0.00 0.00 50 1009.2
20260905192727 79 291 2.0 10.0 0.00 0.00 0.00 50 1009.3
20260905192227 79 351 5.0 12.0 0.00 0.00 0.00 50 1009.3
20260905191727 79 62 6.0 12.0 0.00 0.00 0.00 49 1009.2
20260905191228 80 53 5.0 10.0 0.00 0.00 0.00 49 1009.3
20260905190727 80 31 5.0 10.0 0.00 0.00 0.00 51 1009.3
20260905190227 80 277 5.0 9.0 0.00 0.00 0.00 52 1009.3
20260905185727 80 32 4.0 9.0 0.00 0.00 0.00 51 1009.3
20260905185227 80 40 4.0 10.0 0.00 0.00 0.00 51 1009.5
20260905184727 81 5 3.0 10.0 0.00 0.00 0.00 49 1009.5
20260905184227 80 12 3.0 9.0 0.00 0.00 0.00 48 1009.6
20260905183727 81 22 5.0 9.0 0.00 0.00 0.00 49 1009.5
20260905183227 81 5 6.0 9.0 0.00 0.00 0.00 49 1009.5
20260905182727 81 27 2.0 9.0 0.00 0.00 0.00 51 1009.5
20260905182227 81 14 5.0 9.0 0.00 0.00 0.00 50 1009.5
20260905180727 81 5 2.0 13.0 0.00 0.00 0.00 47 1009.5
20260905180227 81 26 6.0 13.0 0.00 0.00 0.00 47 1009.6
20260905175727 81 5 7.0 13.0 0.00 0.00 0.00 47 1009.7
20260905175227 81 350 4.0 13.0 0.00 0.00 0.00 47 1009.7
20260905174727 81 290 2.0 12.0 0.00 0.00 0.00 49 1009.7
20260905174227 80 355 3.0 9.0 0.00 0.00 0.00 49 1009.7
20260905173727 80 236 4.0 9.0 0.00 0.00 0.00 50 1009.8
20260905173226 80 315 4.0 8.0 0.00 0.00 0.00 50 1009.8
20260905172727 80 235 3.0 8.0 0.00 0.00 0.00 50 1009.7
20260905172227 80 350 4.0 10.0 0.00 0.00 0.00 49 1009.9
20260905171727 80 329 5.0 10.0 0.00 0.00 0.00 49 1010.1
20260905170728 80 336 3.0 10.0 0.00 0.00 0.00 50 1009.9
20260905170226 80 327 2.0 10.0 0.00 0.00 0.00 50 1010.0
20260905165728 80 291 3.0 10.0 0.00 0.00 0.00 51 1010.0
20260905165227 80 5 2.0 10.0 0.00 0.00 0.00 50 1010.1
20260905164227 79 321 5.0 9.0 0.00 0.00 0.00 50 1010.1
20260905163726 79 86 5.0 12.0 0.00 0.00 0.00 50 1010.2
20260905163227 79 323 4.0 12.0 0.00 0.00 0.00 50 1010.2
20260905162726 79 319 4.0 10.0 0.00 0.00 0.00 51 1010.1
20260905162227 78 54 3.0 10.0 0.00 0.00 0.00 53 1010.1
20260905161727 78 272 5.0 9.0 0.00 0.00 0.00 53 1010.1
20260905161227 78 5 3.0 8.0 0.00 0.00 0.00 54 1010.1
20260905160726 78 20 3.0 8.0 0.00 0.00 0.00 53 1010.2
20260905155727 78 294 4.0 12.0 0.00 0.00 0.00 55 1010.0
20260905155227 78 65 5.0 12.0 0.00 0.00 0.00 57 1010.0
20260905154727 77 10 4.0 12.0 0.00 0.00 0.00 56 1009.9
20260905153727 78 350 3.0 10.0 0.00 0.00 0.00 55 1010.0
20260905153227 78 350 4.0 9.0 0.00 0.00 0.00 54 1010.0
20260905152726 78 0 4.0 9.0 0.00 0.00 0.00 53 1010.0
20260905152226 79 251 2.0 8.0 0.00 0.00 0.00 53 1010.0
20260905151726 79 0 5.0 8.0 0.00 0.00 0.00 52 1010.0
20260905151226 79 293 3.0 12.0 0.00 0.00 0.00 52 1010.1
20260905150227 79 274 3.0 9.0 0.00 0.00 0.00 52 1009.9
20260905145727 79 31 3.0 9.0 0.00 0.00 0.00 53 1009.9
20260905144726 78 0 5.0 12.0 0.00 0.00 0.00 56 1010.0
20260905143728 78 333 4.0 13.0 0.00 0.00 0.00 55 1009.9
20260905142726 78 9 4.0 10.0 0.00 0.00 0.00 56 1010.0
20260905142226 78 5 3.0 10.0 0.00 0.00 0.00 56 1009.9
20260905141227 77 275 4.0 9.0 0.00 0.00 0.00 57 1009.9
20260905140727 77 5 3.0 10.0 0.00 0.00 0.00 58 1009.8
20260905140227 77 0 3.0 10.0 0.00 0.00 0.00 58 1009.7
20260905135726 77 288 3.0 10.0 0.00 0.00 0.00 57 1009.7
20260905135226 77 28 4.0 10.0 0.00 0.00 0.00 57 1009.7
20260905134727 77 26 3.0 8.0 0.00 0.00 0.00 58 1009.8
20260905134227 77 70 5.0 9.0 0.00 0.00 0.00 58 1009.8
20260905132726 76 37 2.0 8.0 0.00 0.00 0.00 60 1009.8
20260905132226 76 28 2.0 7.0 0.00 0.00 0.00 61 1009.9
20260905131226 75 341 2.0 7.0 0.00 0.00 0.00 62 1009.9
20260905130726 75 311 2.0 6.0 0.00 0.00 0.00 61 1010.0
20260905130226 75 323 3.0 8.0 0.00 0.00 0.00 62 1010.2